Weather History for KMSS - December, 2014

Change the Weather History Date:

Sunday, December 14, 2014

  Actual Average Record
Temperature  
Mean Temperature 32 °F 23 °F  
Max Temperature 35 °F 31 °F 56 °F (1975)
Min Temperature 29 °F 15 °F -16 °F (1989)
Degree Days  
Heating Degree Days 33 42  
Month to date heating degree days 553 550  
Since 1 July heating degree days 2114 2319  
Cooling Degree Days 0 0  
Month to date cooling degree days 0 0  
Year to date cooling degree days 336 363  
Moisture  
Dew Point 30 °F    
Average Humidity 88    
Maximum Humidity 100    
Minimum Humidity 75    
Precipitation  
Precipitation T in 0.07 in 0.74 in (1977)
Month to date precipitation 0.41 1.19  
Year to date precipitation 30.57 33.72  
Sea Level Pressure  
Sea Level Pressure 29.95 in    
Wind  
Wind Speed 5 mph (WSW)    
Max Wind Speed 13 mph    
Max Gust Speed 17 mph    
Visibility 6 miles    
Events Snow    
T = Trace of Precipitation, MM = Missing Value Source: NWS Daily Summary

Daily Weather History Graph

Daily Weather History Graph

Search for Another Location

Airport or City:

Trip Planner

Search our weather history database for the weather conditions in past years. The results will help you decide how hot, cold, wet, or windy it might be!

Date:

Astronomy

Dec. 14, 2014 Rise Set
Actual Time 7:29 AM EST 4:18 PM EST
Civil Twilight 6:56 AM EST 4:52 PM EST
Nautical Twilight 6:18 AM EST 5:29 PM EST
Astronomical Twilight 5:43 AM EST 6:04 PM EST
Moon No Moon Rise 12:04 PM EST (12/14)
Length of Visible Light 9h 56m
Length of Day
8h 48m
Waning Gibbous, 48% of the Moon is Illuminated
Dec 14
Waning Gibbous
Dec 21
New
Dec 28
First Quarter
Jan 4
Full
Jan 13
Last Quarter

Hourly Weather History & Observations

Time (EST) Temp. Windchill Dew Point Humidity Pressure Visibility Wind Dir Wind Speed Gust Speed Precip Events Conditions
12:53 AM 28.9 °F 23.9 °F 28.0 °F 96% 29.91 in 4.0 mi SW 4.6 mph - N/A   Overcast
1:53 AM 30.0 °F 25.2 °F 28.9 °F 96% 29.91 in 3.0 mi SW 4.6 mph - N/A   Overcast
2:53 AM 30.9 °F 27.5 °F 28.9 °F 92% 29.91 in 3.0 mi WSW 3.5 mph - N/A   Overcast
3:37 AM 30.9 °F 25.2 °F 30.0 °F 96% 29.89 in 3.0 mi SW 5.8 mph - N/A   Overcast
3:53 AM 32.0 °F 26.4 °F 30.0 °F 92% 29.91 in 3.0 mi SW 5.8 mph - N/A   Overcast
4:10 AM 32.0 °F 27.5 °F 30.0 °F 92% 29.89 in 3.0 mi WSW 4.6 mph - N/A   Overcast
4:29 AM 32.0 °F 27.5 °F 30.0 °F 92% 29.88 in 3.0 mi WSW 4.6 mph - N/A   Overcast
4:53 AM 32.0 °F 27.5 °F 30.0 °F 92% 29.90 in 4.0 mi WSW 4.6 mph - N/A   Overcast
5:13 AM 32.0 °F 27.5 °F 30.9 °F 96% 29.89 in 3.0 mi SW 4.6 mph - 0.00 in Snow Light Snow
5:30 AM 32.0 °F 27.5 °F 30.9 °F 96% 29.90 in 4.0 mi SW 4.6 mph - 0.00 in   Overcast
5:53 AM 32.0 °F 27.5 °F 30.9 °F 96% 29.93 in 4.0 mi WSW 4.6 mph - 0.00 in   Overcast
6:34 AM 32.0 °F 27.5 °F 30.9 °F 96% 29.92 in 2.5 mi WSW 4.6 mph - 0.00 in Snow Light Snow
6:53 AM 32.0 °F 27.5 °F 30.9 °F 96% 29.94 in 3.0 mi SW 4.6 mph - 0.00 in Snow Light Snow
7:53 AM 32.0 °F 26.4 °F 30.9 °F 96% 29.95 in 3.0 mi WSW 5.8 mph - 0.00 in   Overcast
8:53 AM 33.1 °F 27.7 °F 30.9 °F 92% 29.96 in 5.0 mi WSW 5.8 mph - N/A   Overcast
9:08 AM 33.1 °F 27.7 °F 30.9 °F 92% 29.94 in 2.5 mi WSW 5.8 mph - 0.00 in Snow Light Snow
9:20 AM 33.1 °F 27.7 °F 30.9 °F 92% 29.94 in 1.8 mi SW 5.8 mph - 0.00 in Snow Light Snow
9:28 AM 33.1 °F 27.7 °F 32.0 °F 96% 29.94 in 1.0 mi WSW 5.8 mph - 0.00 in Snow Light Snow
9:37 AM 33.1 °F 27.7 °F 30.9 °F 92% 29.94 in 2.0 mi WSW 5.8 mph - 0.00 in Snow Light Snow
9:46 AM 33.1 °F 26.9 °F 30.9 °F 92% 29.94 in 5.0 mi West 6.9 mph - 0.00 in   Overcast
9:53 AM 33.1 °F 26.9 °F 30.9 °F 92% 29.96 in 5.0 mi West 6.9 mph - 0.00 in   Overcast
10:01 AM 34.0 °F 28.0 °F 30.9 °F 89% 29.93 in 8.0 mi West 6.9 mph - N/A   Overcast
10:13 AM 34.0 °F 27.2 °F 30.9 °F 89% 29.93 in 6.0 mi WNW 8.1 mph - N/A   Overcast
10:39 AM 33.1 °F 25.5 °F 28.9 °F 85% 29.93 in 4.0 mi West 9.2 mph - 0.00 in Snow Light Snow
10:53 AM 33.1 °F 24.4 °F 28.9 °F 85% 29.95 in 5.0 mi West 11.5 mph - 0.00 in Snow Light Snow
11:53 AM 34.0 °F 28.8 °F 28.0 °F 79% 29.95 in 10.0 mi West 5.8 mph - 0.00 in   Overcast
12:53 PM 34.0 °F 28.0 °F 28.0 °F 79% 29.96 in 10.0 mi West 6.9 mph - N/A   Overcast
1:53 PM 34.0 °F 31.0 °F 30.0 °F 85% 29.95 in 10.0 mi WSW 3.5 mph - N/A   Overcast
2:53 PM 35.1 °F 28.6 °F 28.9 °F 78% 29.96 in 10.0 mi West 8.1 mph - N/A   Overcast
3:53 PM 34.0 °F 27.2 °F 28.0 °F 79% 29.97 in 10.0 mi West 8.1 mph - N/A   Overcast
4:53 PM 34.0 °F 28.8 °F 28.0 °F 79% 30.00 in 10.0 mi West 5.8 mph - N/A   Overcast
5:53 PM 34.0 °F 28.8 °F 28.0 °F 79% 30.01 in 10.0 mi WSW 5.8 mph - N/A   Overcast
6:53 PM 34.0 °F 29.8 °F 28.0 °F 79% 30.02 in 10.0 mi West 4.6 mph - N/A   Overcast
7:53 PM 33.1 °F 30.0 °F 28.0 °F 82% 30.04 in 10.0 mi WSW 3.5 mph - N/A   Overcast
8:53 PM 33.1 °F 28.7 °F 28.9 °F 85% 30.05 in 10.0 mi West 4.6 mph - N/A   Overcast
9:53 PM 33.1 °F - 28.9 °F 85% 30.04 in 10.0 mi Calm Calm - N/A   Overcast
10:53 PM 32.0 °F - 28.9 °F 88% 30.06 in 10.0 mi Calm Calm - N/A   Overcast
11:53 PM 32.0 °F - 28.9 °F 88% 30.06 in 8.0 mi Calm Calm - N/A   Overcast